User: anonymous   Login
Location: Buckeye Ditch
(40.9104°N, 122.9517°W)
Time: 05:49:20
(UTC+00:00)
Language:

NOSS 2-2 (E) - Orbit

View from above orbital plane
View from above orbital plane
View from above satellite
View from above satellite

Ground track
Ground track

The orbit data is extracted from the following two-line orbital elements,

1 21809U 91076E   24174.57957404  .00002621  00000-0  27569-3 0  9995
2 21809  63.3072 281.3384 0903575  61.2215 307.6528 13.48775034  6221
Epoch (UTC): 22 June 2024 13:54:35
Eccentricity: 0.0903575
inclination: 63.3072°
perigee height: 403 km
apogee height: 1750 km
right ascension of ascending node: 281.3384°
argument of perigee: 61.2215°
revolutions per day: 13.48775034
mean anomaly at epoch: 307.6528°
orbit number at epoch: 622

The dashed part of the orbit path shows where the satellite is in the earth's shadow,  

DLR